Weather History for Marrakech, Morocco

Change the Weather History Date:

Friday, July 26, 2013

  Actual Average Record
Temperature  
Mean Temperature 80 °F -  
Max Temperature 95 °F 94 °F 123 °F (1998)
Min Temperature 65 °F 67 °F 35 °F (2005)
Cooling Degree Days 15    
Growing Degree Days 30 (Base 50)    
Moisture  
Dew Point 62 °F    
Average Humidity 57    
Maximum Humidity 94    
Minimum Humidity 18    
Precipitation  
Precipitation 0.00 in 0.00 in - ()
Sea Level Pressure  
Sea Level Pressure 29.99 in    
Wind  
Wind Speed 6 mph ()    
Max Wind Speed 15 mph    
Max Gust Speed 18 mph    
Visibility 6.1 miles    
Events      
Averages and records for this station are not official NWS values.
T = Trace of Precipitation, MM = Missing Value Source: Averaged Metar Reports

Daily Weather History Graph

Daily Weather History Graph

Search for Another Location

Airport:

Trip Planner

Search our weather history database for the weather conditions in past years. The results will help you decide how hot, cold, wet, or windy it might be!

Date:

Astronomy

Jul. 26, 2013 Rise Set
Actual Time 5:44 AM WET 7:32 PM WET
Civil Twilight 5:17 AM WET 7:59 PM WET
Nautical Twilight 4:45 AM WET 8:31 PM WET
Astronomical Twilight 4:10 AM WET 9:05 PM WET
Moon 10:01 PM WET (7/26) 9:45 AM WET (7/26)
Length of Visible Light 14h 41m
Length of Day
13h 48m
Waning Gibbous, 82% of the Moon is Illuminated
Jul 26
Waning Gibbous
Jul 29
Last Quarter
Aug 6
New
Aug 14
First Quarter
Aug 21
Full

Hourly Weather History & Observations

Time (WET) Temp. Heat Index Dew Point Humidity Pressure Visibility Wind Dir Wind Speed Gust Speed Precip Events Conditions
12:00 AM 76 °F - 60 °F 49% 29.97 in 6 mi WSW 5.8 mph - -  
12:00 AM 77.0 °F - 60.8 °F 57% 30.04 in - WSW 5.8 mph - N/A   Clear
12:30 AM 73.4 °F - 60.8 °F 65% 30.04 in - WSW 8.1 mph - N/A   Clear
1:00 AM 73.4 °F - 60.8 °F 65% 30.04 in - WSW 9.2 mph - N/A   Clear
1:30 AM 71.6 °F - 62.6 °F 73% 30.04 in - WSW 9.2 mph - N/A   Clear
2:00 AM 71.6 °F - 62.6 °F 73% 30.04 in - SW 9.2 mph - N/A   Clear
2:30 AM 69.8 °F - 62.6 °F 78% 30.04 in - WSW 6.9 mph - N/A   Clear
3:00 AM 69 °F - 63 °F 76% 29.99 in 6 mi WSW 8.1 mph - -  
3:00 AM 69.8 °F - 62.6 °F 78% 30.04 in - WSW 6.9 mph - N/A   Clear
3:30 AM 68.0 °F - 62.6 °F 83% 30.04 in - WSW 6.9 mph - N/A   Clear
4:00 AM 68.0 °F - 62.6 °F 83% 30.04 in - West 4.6 mph - N/A   Clear
4:30 AM 68.0 °F - 62.6 °F 83% 30.04 in - WSW 4.6 mph - N/A   Clear
5:00 AM 66.2 °F - 62.6 °F 88% 30.04 in - West 3.5 mph - N/A   Clear
5:30 AM 66.2 °F - 62.6 °F 88% 30.04 in - WSW 3.5 mph - N/A   Clear
6:00 AM 66 °F - 63 °F 87% 30.00 in 6 mi WSW 5.8 mph - -  
6:00 AM 66.2 °F - 62.6 °F 88% 30.04 in - WSW 5.8 mph - N/A   Clear
6:30 AM 66.2 °F - 62.6 °F 88% 30.04 in - WSW 4.6 mph - N/A   Clear
7:00 AM 66.2 °F - 64.4 °F 94% 30.04 in - SW 4.6 mph - N/A   Clear
7:30 AM 68.0 °F - 64.4 °F 88% 30.04 in - WSW 4.6 mph - N/A   Clear
8:00 AM 69.8 °F - 64.4 °F 83% 30.04 in - West 4.6 mph - N/A   Clear
8:30 AM 71.6 °F - 64.4 °F 78% 30.04 in - West 4.6 mph - N/A   Clear
9:00 AM 73 °F - 64 °F 65% 29.98 in 6 mi SW 3.5 mph - -  
9:00 AM 73.4 °F - 64.4 °F 73% 30.04 in - SW 3.5 mph - N/A   Clear
9:30 AM 77.0 °F - 64.4 °F 65% 30.04 in - Variable 2.3 mph - N/A   Clear
10:00 AM 77.0 °F - 64.4 °F 65% 30.04 in - Variable 2.3 mph - N/A   Clear
10:30 AM 78.8 °F - 64.4 °F 61% 30.01 in - Variable 5.8 mph - N/A   Clear
11:00 AM 80.6 °F 82.3 °F 64.4 °F 58% 30.01 in - NNW 4.6 mph - N/A   Clear
11:30 AM 82.4 °F 83.4 °F 62.6 °F 51% 30.01 in - Variable 5.8 mph - N/A   Clear
12:00 PM 86 °F - 64 °F 37% 29.90 in 6 mi NNW 5.8 mph - -  
12:00 PM 86.0 °F 87.3 °F 64.4 °F 48% 30.01 in - NW 6.9 mph - N/A   Clear
12:30 PM 86.0 °F 86.6 °F 62.6 °F 45% 29.98 in - NW 6.9 mph - N/A   Clear
1:00 PM 89.6 °F 90.1 °F 62.6 °F 40% 29.98 in - WNW 6.9 mph - N/A   Clear
1:30 PM 91.4 °F 91.4 °F 60.8 °F 36% 29.98 in - WNW 5.8 mph - N/A   Clear
2:00 PM 91.4 °F 91.4 °F 60.8 °F 36% 29.98 in 6.2 mi WNW 6.9 mph - N/A   Partly Cloudy
2:30 PM 93.2 °F 92.6 °F 59.0 °F 32% 29.95 in 6.2 mi Variable 5.8 mph - N/A   Partly Cloudy
2:45 PM 93 °F - 55 °F 18% 29.84 in 6 mi West 8.1 mph - -   Scattered Clouds
3:00 PM 93.2 °F 92.6 °F 59.0 °F 32% 29.95 in 6.2 mi NW 6.9 mph - N/A   Partly Cloudy
3:30 PM 93.2 °F 92.6 °F 59.0 °F 32% 29.95 in 6.2 mi West 8.1 mph - N/A   Partly Cloudy
4:00 PM 95.0 °F 93.7 °F 57.2 °F 28% 29.95 in 6.2 mi West 6.9 mph 18.4 mph N/A   Partly Cloudy
4:30 PM 95.0 °F 93.7 °F 57.2 °F 28% 29.95 in 6.2 mi West 9.2 mph - N/A   Partly Cloudy
5:00 PM 95.0 °F 93.7 °F 57.2 °F 28% 29.92 in 6.2 mi West 9.2 mph - N/A   Partly Cloudy
5:30 PM 95.0 °F 93.7 °F 57.2 °F 28% 29.92 in 6.2 mi West 10.4 mph - N/A   Partly Cloudy
6:00 PM 94 °F - 57 °F 20% 29.81 in 6 mi West 10.4 mph - -   Scattered Clouds
6:00 PM 95.0 °F 93.7 °F 57.2 °F 28% 29.92 in 6.2 mi West 10.4 mph - N/A   Partly Cloudy
6:30 PM 93.2 °F 91.9 °F 57.2 °F 30% 29.92 in - WSW 9.2 mph - N/A   Clear
7:00 PM 93.2 °F 91.9 °F 57.2 °F 30% 29.92 in - West 11.5 mph - N/A   Clear
7:30 PM 87.8 °F 87.6 °F 60.8 °F 40% 29.95 in - West 15.0 mph - N/A   Clear
8:00 PM 86.0 °F 86.1 °F 60.8 °F 43% 29.95 in - WSW 10.4 mph - N/A   Clear
8:30 PM 84.2 °F 84.4 °F 60.8 °F 45% 29.95 in - SW 11.5 mph - N/A   Clear
9:00 PM 84 °F - 63 °F 38% 29.87 in 6 mi WNW 6.9 mph - -  
9:00 PM 84.2 °F 85.0 °F 62.6 °F 48% 29.95 in - West 5.8 mph - N/A   Clear
9:30 PM 80.6 °F 81.8 °F 62.6 °F 54% 29.98 in - WNW 13.8 mph - N/A   Clear
10:00 PM 78.8 °F - 62.6 °F 57% 29.98 in - West 11.5 mph - N/A   Clear
10:30 PM 77.0 °F - 62.6 °F 61% 30.01 in - West 11.5 mph - N/A   Clear
11:00 PM 75.2 °F - 62.6 °F 65% 30.01 in - WSW 10.4 mph - N/A   Clear
11:30 PM 73.4 °F - 62.6 °F 69% 29.98 in - WSW 9.2 mph - N/A   Clear